| time (UTC) | temp F | wind direction | speed MPH | gust MPH | rain 1hr in | rain 24hr in | rain mn in | humidity % | barometer mb |
| 20260509003024 | 74 | 174 | 1.0 | 4.0 | 0.00 | 0.00 | 0.00 | 76 | 1008.5 |
| 20260509001525 | 74 | 148 | 0.0 | 4.0 | 0.00 | 0.00 | 0.00 | 75 | 1008.5 |
| 20260509000028 | 74 | 121 | 2.0 | 5.0 | 0.00 | 0.00 | 0.00 | 75 | 1008.6 |
| 20260508234510 | 74 | 180 | 2.0 | 8.0 | 0.00 | 0.00 | 0.00 | 75 | 1008.6 |
| 20260508233022 | 74 | 126 | 2.0 | 9.0 | 0.00 | 0.00 | 0.00 | 75 | 1008.7 |
| 20260508231521 | 74 | 173 | 2.0 | 9.0 | 0.00 | 0.00 | 0.00 | 75 | 1008.7 |
| 20260508230037 | 74 | 183 | 4.0 | 12.0 | 0.00 | 0.00 | 0.00 | 75 | 1008.7 |
| 20260508224529 | 74 | 177 | 7.0 | 14.0 | 0.00 | 0.00 | 0.00 | 74 | 1008.8 |
| 20260508223021 | 74 | 153 | 5.0 | 11.0 | 0.00 | 0.00 | 0.00 | 74 | 1009.0 |
| 20260508221522 | 74 | 178 | 3.0 | 9.0 | 0.00 | 0.00 | 0.00 | 74 | 1009.1 |
| 20260508220027 | 73 | 179 | 2.0 | 7.0 | 0.00 | 0.00 | 0.00 | 73 | 1009.4 |
| 20260508214530 | 73 | 175 | 2.0 | 11.0 | 0.00 | 0.00 | 0.00 | 74 | 1009.4 |
| 20260508213037 | 72 | 111 | 7.0 | 17.0 | 0.00 | 0.00 | 0.00 | 75 | 1009.1 |
| 20260508211533 | 70 | 126 | 6.0 | 17.0 | 0.00 | 0.00 | 0.00 | 77 | 1009.1 |
| 20260508210026 | 69 | 118 | 8.0 | 13.0 | 0.00 | 0.00 | 0.00 | 78 | 1009.2 |
| 20260508204505 | 68 | 281 | 0.0 | 7.0 | 0.00 | 0.00 | 0.00 | 78 | 1011.6 |
| 20260508203005 | 70 | 178 | 3.0 | 11.0 | 0.00 | 0.00 | 0.00 | 76 | 1011.0 |
| 20260508201506 | 70 | 174 | 4.0 | 10.0 | 0.00 | 0.00 | 0.00 | 74 | 1011.4 |
| 20260508200004 | 71 | 165 | 5.0 | 10.0 | 0.00 | 0.00 | 0.00 | 73 | 1011.4 |
| 20260508194523 | 70 | 176 | 5.0 | 9.0 | 0.00 | 0.00 | 0.00 | 73 | 1011.2 |
| 20260508193006 | 70 | 143 | 4.0 | 7.0 | 0.00 | 0.00 | 0.00 | 72 | 1011.3 |
| 20260508191506 | 69 | 188 | 5.0 | 11.0 | 0.00 | 0.00 | 0.00 | 71 | 1011.6 |
| 20260508190012 | 70 | 191 | 4.0 | 12.0 | 0.00 | 0.00 | 0.00 | 72 | 1011.7 |
| 20260508184508 | 70 | 173 | 4.0 | 9.0 | 0.00 | 0.00 | 0.00 | 72 | 1012.0 |
| 20260508183016 | 70 | 161 | 2.0 | 8.0 | 0.00 | 0.00 | 0.00 | 72 | 1012.3 |
| 20260508181509 | 70 | 158 | 2.0 | 8.0 | 0.00 | 0.00 | 0.00 | 73 | 1012.4 |
| 20260508180015 | 70 | 128 | 4.0 | 8.0 | 0.00 | 0.00 | 0.00 | 70 | 1012.4 |
| 20260508174508 | 70 | 113 | 3.0 | 9.0 | 0.00 | 0.00 | 0.00 | 71 | 1012.6 |
| 20260508173010 | 69 | 113 | 3.0 | 9.0 | 0.00 | 0.00 | 0.00 | 72 | 1013.0 |
| 20260508171514 | 69 | 106 | 4.0 | 8.0 | 0.00 | 0.00 | 0.00 | 72 | 1013.1 |
| 20260508170010 | 69 | 168 | 4.0 | 11.0 | 0.00 | 0.00 | 0.00 | 72 | 1013.2 |
| 20260508164514 | 69 | 117 | 4.0 | 8.0 | 0.00 | 0.00 | 0.00 | 71 | 1013.3 |
| 20260508163017 | 68 | 143 | 2.0 | 7.0 | 0.00 | 0.00 | 0.00 | 73 | 1013.5 |
| 20260508161513 | 68 | 117 | 0.0 | 7.0 | 0.00 | 0.00 | 0.00 | 73 | 1014.0 |
| 20260508160012 | 67 | 118 | 0.0 | 4.0 | 0.00 | 0.00 | 0.00 | 73 | 1014.1 |
| 20260508154532 | 67 | 134 | 0.0 | 4.0 | 0.00 | 0.00 | 0.00 | 74 | 1014.4 |
| 20260508153015 | 66 | 190 | 1.0 | 4.0 | 0.00 | 0.00 | 0.00 | 74 | 1014.5 |
| 20260508151521 | 66 | 76 | 1.0 | 6.0 | 0.00 | 0.00 | 0.00 | 74 | 1014.6 |
| 20260508150014 | 66 | 117 | 1.0 | 6.0 | 0.00 | 0.00 | 0.00 | 73 | 1014.6 |
| 20260508144508 | 65 | 113 | 2.0 | 7.0 | 0.00 | 0.00 | 0.00 | 73 | 1014.6 |
| 20260508143017 | 66 | 126 | 2.0 | 7.0 | 0.00 | 0.00 | 0.00 | 72 | 1014.5 |
| 20260508141522 | 66 | 110 | 4.0 | 8.0 | 0.00 | 0.00 | 0.00 | 72 | 1014.4 |
| 20260508140003 | 65 | 75 | 3.0 | 8.0 | 0.00 | 0.00 | 0.00 | 73 | 1014.6 |
| 20260508134511 | 64 | 78 | 2.0 | 7.0 | 0.00 | 0.00 | 0.00 | 74 | 1014.7 |
| 20260508133009 | 63 | 68 | 0.0 | 4.0 | 0.00 | 0.00 | 0.00 | 74 | 1015.1 |
| 20260508131517 | 62 | 140 | 0.0 | 1.0 | 0.00 | 0.00 | 0.00 | 75 | 1015.0 |
| 20260508130025 | 60 | 52 | 0.0 | 3.0 | 0.00 | 0.00 | 0.00 | 78 | 1014.9 |
| 20260508124504 | 59 | 348 | 0.0 | 2.0 | 0.00 | 0.00 | 0.00 | 81 | 1014.9 |
| 20260508123024 | 58 | 348 | 0.0 | 1.0 | 0.00 | 0.00 | 0.00 | 82 | 1014.7 |
| 20260508121519 | 57 | 344 | 0.0 | 2.0 | 0.00 | 0.00 | 0.00 | 82 | 1014.6 |
| 20260508120021 | 56 | 93 | 0.0 | 0.0 | 0.00 | 0.00 | 0.00 | 83 | 1014.4 |
| 20260508114527 | 56 | 149 | 0.0 | 1.0 | 0.00 | 0.00 | 0.00 | 83 | 1014.6 |
| 20260508113019 | 56 | 153 | 0.0 | 1.0 | 0.00 | 0.00 | 0.00 | 83 | 1014.4 |
| 20260508111516 | 56 | 173 | 0.0 | 0.0 | 0.00 | 0.00 | 0.00 | 83 | 1014.7 |
| 20260508110016 | 56 | 173 | 0.0 | 1.0 | 0.00 | 0.00 | 0.00 | 84 | 1014.7 |
| 20260508104524 | 56 | 173 | 0.0 | 0.0 | 0.00 | 0.00 | 0.00 | 84 | 1014.4 |
| 20260508103029 | 56 | 173 | 0.0 | 4.0 | 0.00 | 0.00 | 0.00 | 83 | 1014.4 |
| 20260508101509 | 56 | 171 | 1.0 | 4.0 | 0.00 | 0.00 | 0.00 | 83 | 1014.2 |
| 20260508100016 | 57 | 117 | 0.0 | 4.0 | 0.00 | 0.00 | 0.00 | 83 | 1013.8 |
| 20260508094517 | 57 | 154 | 0.0 | 0.0 | 0.00 | 0.00 | 0.00 | 83 | 1014.2 |
| 20260508093023 | 57 | 154 | 0.0 | 0.0 | 0.00 | 0.00 | 0.00 | 83 | 1014.5 |
| 20260508091525 | 58 | 154 | 0.0 | 0.0 | 0.00 | 0.00 | 0.00 | 83 | 1014.4 |
| 20260508090019 | 58 | 154 | 0.0 | 0.0 | 0.00 | 0.00 | 0.00 | 84 | 1014.2 |
| 20260508084514 | 58 | 154 | 0.0 | 0.0 | 0.00 | 0.00 | 0.00 | 83 | 1014.5 |
| 20260508083020 | 58 | 154 | 0.0 | 0.0 | 0.00 | 0.00 | 0.00 | 84 | 1014.6 |
| 20260508081524 | 58 | 154 | 0.0 | 0.0 | 0.00 | 0.00 | 0.00 | 84 | 1015.1 |
| 20260508080028 | 58 | 154 | 0.0 | 0.0 | 0.00 | 0.00 | 0.00 | 85 | 1015.6 |
| 20260508074520 | 57 | 154 | 0.0 | 0.0 | 0.00 | 0.00 | 0.00 | 84 | 1015.4 |
| 20260508073020 | 56 | 154 | 0.0 | 0.0 | 0.00 | 0.00 | 0.00 | 83 | 1015.1 |
| 20260508071521 | 56 | 154 | 0.0 | 0.0 | 0.00 | 0.00 | 0.00 | 82 | 1014.8 |
| 20260508070027 | 56 | 154 | 0.0 | 0.0 | 0.00 | 0.00 | 0.00 | 82 | 1014.9 |
| 20260508064510 | 55 | 154 | 0.0 | 0.0 | 0.00 | 0.00 | 0.00 | 81 | 1015.3 |
| 20260508063013 | 56 | 154 | 0.0 | 0.0 | 0.00 | 0.00 | 0.00 | 81 | 1015.6 |
| 20260508061521 | 56 | 154 | 0.0 | 0.0 | 0.00 | 0.00 | 0.00 | 81 | 1015.7 |
| 20260508060024 | 56 | 154 | 0.0 | 0.0 | 0.00 | 0.00 | 0.00 | 80 | 1015.8 |
| 20260508054534 | 57 | 154 | 0.0 | 0.0 | 0.00 | 0.00 | 0.00 | 80 | 1015.8 |
| 20260508053013 | 57 | 154 | 0.0 | 0.0 | 0.00 | 0.00 | 0.00 | 80 | 1015.8 |
| 20260508051516 | 57 | 154 | 0.0 | 0.0 | 0.00 | 0.00 | 0.00 | 80 | 1015.9 |
| 20260508050023 | 57 | 154 | 0.0 | 0.0 | 0.00 | 0.00 | 0.00 | 79 | 1015.7 |
| 20260508044526 | 58 | 154 | 0.0 | 0.0 | 0.00 | 0.00 | 0.00 | 79 | 1016.0 |
| 20260508043027 | 58 | 154 | 0.0 | 0.0 | 0.00 | 0.00 | 0.00 | 79 | 1015.9 |
| 20260508041510 | 59 | 154 | 0.0 | 0.0 | 0.00 | 0.00 | 0.00 | 79 | 1015.9 |
| 20260508040017 | 59 | 154 | 0.0 | 0.0 | 0.00 | 0.00 | 0.00 | 78 | 1015.9 |
| 20260508034536 | 60 | 154 | 0.0 | 0.0 | 0.00 | 0.00 | 0.00 | 79 | 1015.7 |
| 20260508033025 | 60 | 154 | 0.0 | 0.0 | 0.00 | 0.00 | 0.00 | 78 | 1015.4 |
| 20260508031534 | 60 | 154 | 0.0 | 0.0 | 0.00 | 0.00 | 0.00 | 78 | 1015.3 |
| 20260508030027 | 60 | 154 | 0.0 | 0.0 | 0.00 | 0.00 | 0.00 | 78 | 1015.1 |
| 20260508024540 | 60 | 154 | 0.0 | 0.0 | 0.00 | 0.00 | 0.00 | 78 | 1014.9 |
| 20260508023023 | 60 | 154 | 0.0 | 0.0 | 0.00 | 0.00 | 0.00 | 78 | 1015.3 |
| 20260508021526 | 61 | 154 | 0.0 | 0.0 | 0.00 | 0.00 | 0.00 | 79 | 1015.4 |
| 20260508020027 | 61 | 154 | 0.0 | 0.0 | 0.00 | 0.00 | 0.00 | 78 | 1015.4 |
| 20260508014535 | 62 | 154 | 0.0 | 0.0 | 0.00 | 0.00 | 0.00 | 78 | 1014.9 |
| 20260508013022 | 63 | 154 | 0.0 | 0.0 | 0.00 | 0.00 | 0.00 | 78 | 1015.0 |
| 20260508011529 | 63 | 154 | 0.0 | 0.0 | 0.00 | 0.00 | 0.00 | 76 | 1014.9 |
| 20260508010030 | 64 | 154 | 0.0 | 0.0 | 0.00 | 0.00 | 0.00 | 76 | 1015.2 |
| 20260508004524 | 65 | 154 | 0.0 | 1.0 | 0.00 | 0.00 | 0.00 | 73 | 1015.1 |